Terug naar catalogus

STARLINK-34448

ActiefCommunicatieVLEO
NORAD 64291·PAYLOAD·🇺🇸 United States

Gelanceerd Jun 8, 2025 vanaf Vandenberg Space Force Base

Loading…

Volgende Passages (komende 24 uur)

TLE

VersSource: CelesTrak SupGP

Epoch: Sep 15, 2026, 02:24 UTC

1 64291C 25123A   26258.10048611 -.00046218  00000+0 -16074-2 0  2589
2 64291  69.9996  75.0619 0003651 271.0136 187.0786 15.29608156    16

Volg STARLINK-34448 in realtime met AllMySat

Download on the App Store